EPWR

Copernicus Wrocław Airport

Wrocław, Poland
Issued Wind Visibility Temperature Dew Point Humidity Barometer
Mar-26
06:30 UTC
310°
4 KTS
10 km or more C
36° F
C
34° F
93% 30.27" Hg
1025 hPa
VFR
Mar-26
06:00 UTC
290°
4 KTS
10 km or more -1° C
30° F
-2° C
28° F
93% 30.27" Hg
1025 hPa
VFR
Mar-26
05:30 UTC
270°
3 KTS
10 km or more -1° C
30° F
-2° C
28° F
93% 30.27" Hg
1025 hPa
VFR
Mar-26
05:00 UTC
270°
3 KTS
10 km or more -2° C
28° F
-3° C
27° F
93% 30.24" Hg
1024 hPa
VFR
Mar-26
04:30 UTC
310°
6 KTS
7,998 meters -1° C
30° F
-2° C
28° F
93% 30.24" Hg
1024 hPa
MVFR
Mar-26
04:00 UTC
310°
6 KTS
10 km or more C
32° F
-1° C
30° F
93% 30.24" Hg
1024 hPa
VFR
Mar-26
03:30 UTC
300°
4 KTS
10 km or more -2° C
28° F
-3° C
27° F
93% 30.24" Hg
1024 hPa
VFR
Mar-26
03:00 UTC
290°
3 KTS
10 km or more C
32° F
-1° C
30° F
93% 30.24" Hg
1024 hPa
VFR
Mar-26
02:30 UTC
320°
5 KTS
10 km or more -1° C
30° F
-2° C
28° F
93% 30.24" Hg
1024 hPa
VFR
Mar-26
02:00 UTC
330°
5 KTS
10 km or more C
32° F
-2° C
28° F
87% 30.24" Hg
1024 hPa
VFR
Mar-26
01:30 UTC
310°
5 KTS
10 km or more C
34° F
-1° C
30° F
87% 30.24" Hg
1024 hPa
VFR
Mar-26
01:00 UTC
290°
6 KTS
10 km or more C
32° F
-2° C
28° F
87% 30.24" Hg
1024 hPa
VFR
Mar-26
00:30 UTC
290°
6 KTS
10 km or more C
34° F
-1° C
30° F
87% 30.24" Hg
1024 hPa
VFR
Mar-26
00:00 UTC
280°
4 KTS
10 km or more C
34° F
-2° C
28° F
81% 30.24" Hg
1024 hPa
VFR
Mar-25
23:30 UTC
300°
6 KTS
10 km or more C
36° F
-1° C
30° F
81% 30.24" Hg
1024 hPa
VFR
Mar-25
23:00 UTC
310°
6 KTS
10 km or more C
36° F
-1° C
30° F
81% 30.24" Hg
1024 hPa
VFR
Mar-25
22:30 UTC
310°
7 KTS
10 km or more C
36° F
-1° C
30° F
81% 30.24" Hg
1024 hPa
VFR
Mar-25
22:00 UTC
320°
5 KTS
10 km or more C
39° F
-1° C
30° F
70% 30.24" Hg
1024 hPa
VFR
Mar-25
21:30 UTC
350°
5 KTS
10 km or more C
39° F
-1° C
30° F
70% 30.24" Hg
1024 hPa
VFR
Mar-25
21:00 UTC
010°
6 KTS
10 km or more C
41° F
-1° C
30° F
66% 30.24" Hg
1024 hPa
VFR
Mar-25
20:30 UTC
010°
8 KTS
10 km or more C
41° F
C
32° F
70% 30.21" Hg
1023 hPa
VFR
Mar-25
20:00 UTC
010°
10 KTS
10 km or more C
43° F
C
32° F
66% 30.21" Hg
1023 hPa
VFR
Mar-25
19:30 UTC
010°
13 KTS
10 km or more C
45° F
C
34° F
66% 30.21" Hg
1023 hPa
VFR
Mar-25
19:00 UTC
340°
11 KTS
Gust 23 KTS
10 km or more C
45° F
C
32° F
61% 30.21" Hg
1023 hPa
VFR
Mar-25
18:30 UTC
330°
7 KTS
10 km or more C
45° F
-1° C
30° F
57% 30.18" Hg
1022 hPa
VFR
Mar-25
18:00 UTC
320°
9 KTS
10 km or more C
46° F
-1° C
30° F
53% 30.18" Hg
1022 hPa
VFR
Mar-25
17:30 UTC
330°
10 KTS
10 km or more C
48° F
-2° C
28° F
46% 30.18" Hg
1022 hPa
VFR
Mar-25
17:00 UTC
320°
12 KTS
10 km or more 10° C
50° F
-1° C
30° F
47% 30.18" Hg
1022 hPa
VFR
Mar-25
16:30 UTC
310°
16 KTS
10 km or more 10° C
50° F
-1° C
30° F
47% 30.18" Hg
1022 hPa
VFR
Mar-25
16:00 UTC
320°
13 KTS
10 km or more 11° C
52° F
-2° C
28° F
41% 30.18" Hg
1022 hPa
VFR
Mar-25
15:30 UTC
310°
16 KTS
10 km or more 11° C
52° F
-3° C
27° F
38% 30.18" Hg
1022 hPa
VFR
Mar-25
15:00 UTC
310°
18 KTS
10 km or more 12° C
54° F
-3° C
27° F
35% 30.21" Hg
1023 hPa
VFR
Mar-25
14:30 UTC
310°
15 KTS
10 km or more 12° C
54° F
-4° C
25° F
33% 30.21" Hg
1023 hPa
VFR
Mar-25
14:00 UTC
290°
15 KTS
10 km or more 12° C
54° F
-4° C
25° F
33% 30.24" Hg
1024 hPa
VFR
Mar-25
13:30 UTC
290°
17 KTS
10 km or more 12° C
54° F
-4° C
25° F
33% 30.27" Hg
1025 hPa
VFR
Mar-25
13:00 UTC
290°
16 KTS
10 km or more 11° C
52° F
-3° C
27° F
38% 30.27" Hg
1025 hPa
VFR
Mar-25
12:30 UTC
290°
16 KTS
10 km or more 11° C
52° F
-4° C
25° F
35% 30.3" Hg
1026 hPa
VFR
Mar-25
12:00 UTC
330°
13 KTS
10 km or more 12° C
54° F
-3° C
27° F
35% 30.3" Hg
1026 hPa
VFR
Mar-25
11:30 UTC
310°
19 KTS
10 km or more 11° C
52° F
-4° C
25° F
35% 30.32" Hg
1027 hPa
VFR
Mar-25
11:00 UTC
320°
15 KTS
10 km or more 11° C
52° F
-2° C
28° F
41% 30.32" Hg
1027 hPa
VFR
Mar-25
10:30 UTC
310°
19 KTS
10 km or more 10° C
50° F
-2° C
28° F
43% 30.32" Hg
1027 hPa
VFR
Mar-25
10:00 UTC
300°
15 KTS
10 km or more 11° C
52° F
C
32° F
47% 30.35" Hg
1028 hPa
VFR
Mar-25
09:30 UTC
300°
14 KTS
10 km or more 10° C
50° F
C
32° F
50% 30.35" Hg
1028 hPa
VFR
Mar-25
09:00 UTC
300°
14 KTS
10 km or more C
48° F
-1° C
30° F
50% 30.35" Hg
1028 hPa
VFR
Mar-25
08:30 UTC
310°
13 KTS
10 km or more C
46° F
C
32° F
57% 30.35" Hg
1028 hPa
VFR
Mar-25
08:00 UTC
280°
8 KTS
10 km or more C
45° F
C
34° F
66% 30.38" Hg
1029 hPa
VFR
Mar-25
07:30 UTC
280°
9 KTS
10 km or more C
43° F
C
36° F
76% 30.38" Hg
1029 hPa
VFR